[Iaude] MPEC W08: 2016 VW5 [a=2.12,e=0.63,i=7.7,H=24.2]

mpec at si.edu mpec at si.edu
Thu Nov 17 22:17:26 EST 2016


M.P.E.C. 2016-W08                                Issued 2016 Nov. 18, 03:12 UT
 
     The Minor Planet Electronic Circulars contain information on unusual
         minor planets and routine data on comets.  They are published
    on behalf of Division F of the International Astronomical Union by the
          Minor Planet Center, Smithsonian Astrophysical Observatory,
                          Cambridge, MA 02138, U.S.A.

             Prepared using the Tamkin Foundation Computer Network

                              MPC at CFA.HARVARD.EDU
            URL http://www.minorplanetcenter.net/    ISSN 1523-6714


                                   2016 VW5
 
Observations:
     K16V05W* C2016 11 11.35674 05 01 48.21 +21 17 49.0          19.8 VqEW008G96
     K16V05W  C2016 11 11.36540 05 01 41.81 +21 18 48.8          19.7 VqEW008G96
     K16V05W  C2016 11 11.36969 05 01 38.65 +21 19 18.0          19.6 VqEW008G96
     K16V05W  C2016 11 11.40844 05 01 10.15 +21 23 42.6          19.4 VqEW008G96
     K16V05W  C2016 11 11.40885 05 01 09.87 +21 23 44.8          19.5 VqEW008G96
     K16V05W  C2016 11 11.40927 05 01 09.55 +21 23 47.9          19.7 VqEW008G96
     K16V05W  C2016 11 11.40973 05 01 09.27 +21 23 50.5          19.8 VqEW008G96
     K16V05W ^C2016 11 11.53920 04 59 36.92 +21 38 00.7          20.0 RoEW008695
     K16V05W ^C2016 11 11.54040 04 59 36.10 +21 38 08.4          19.8 RoEW008695
     K16V05W ^C2016 11 11.54160 04 59 35.26 +21 38 16.0          20.1 RoEW008695
     K16V05W KC2016 11 12.28016 04 52 07.05 +22 52 15.7          19.9 RoEW008291
     K16V05W KC2016 11 12.28220 04 52 05.84 +22 52 26.9          19.5 RoEW008291
     K16V05W KC2016 11 12.28422 04 52 04.55 +22 52 37.9          20.4 RoEW008291
     K16V05W  C2016 11 12.43717004 50 30.79 +23 06 13.1          19.4 GUEW008H01
     K16V05W  C2016 11 12.44501904 50 26.10 +23 06 53.5          19.2 GUEW008H01
     K16V05W  C2016 11 12.45327504 50 21.20 +23 07 35.7          19.6 GUEW008H01
     K16V05W  C2016 11 12.45990304 50 17.26 +23 08 09.5          19.4 GUEW008H01
     K16V05W KC2016 11 12.94636 04 46 03.76 +23 47 54.9                SEW008595
     K16V05W KC2016 11 12.95747 04 45 57.79 +23 48 47.4          19.9 VSEW008595
     K16V05W  C2016 11 13.16421604 44 18.10 +24 04 28.1          19.4 GUEW008H01
     K16V05W  C2016 11 13.16757704 44 16.38 +24 04 43.6          19.4 GUEW008H01
     K16V05W  C2016 11 13.17683204 44 11.68 +24 05 26.5          19.6 GUEW008H01
     K16V05W  C2016 11 13.19042104 44 04.76 +24 06 29.2          19.2 GUEW008H01
 
Observer details:
291 LPL/Spacewatch II.  Observer T. H. Bressi.  1.8-m f/2.7 reflector + CCD.
595 Farra d'Isonzo.  Observer E. Pettarin.  0.61-m f/4.0 reflector + CCD.
695 Kitt Peak.  Observer T. H. Bressi.  2.3-m f/9 reflector + CCD.
G96 Mt. Lemmon Survey.  Observer R. G. Matheny.  Measurers E. J. Christensen,
    D. C. Fuls, A. R. Gibbs, A. D. Grauer, J. A. Johnson, R. A. Kowalski,
    S. M. Larson, G. J. Leonard, R. G. Matheny, R. L. Seaman, F. C. Shelly.
    1.5-m reflector + 10K CCD.
H01 Magdalena Ridge Observatory, Socorro.  Observers W. H. Ryan, E. V. Ryan.
    Measurer W. H. Ryan.  2.4-m f/8.9 reflector + CCD.
 
Orbital elements:
2016 VW5                                                 Earth MOID = 0.0182 AU
Epoch 2017 Feb. 16.0 TT = JDT 2457800.5                 MPC
M  46.20991              (2000.0)            P               Q
n   0.31929418     Peri.  288.11308     +0.93146541     +0.34828862
a   2.1200302      Node    51.63890     -0.26191041     +0.84259252
e   0.6338007      Incl.    7.71034     -0.25253736     +0.41077109
P   3.09           H   24.2           G   0.15           U   6
Residuals in seconds of arc
161111 G96  0.2-  0.2+    161111 695  0.1-  0.2+    161112 H01  0.1-  0.2-
161111 G96  0.2-  0.1+    161111 695  0.2-  0.2+    161112 595  0.5-  0.2-
161111 G96  0.0   0.2-    161112 291  0.1-  0.4+    161112 595  0.2+  0.2-
161111 G96  0.2-  0.2+    161112 291  0.5+  0.2+    161113 H01  0.0   0.0
161111 G96  0.1+  0.4-    161112 291  0.2-  0.0     161113 H01  0.2-  0.1-
161111 G96  0.1-  0.1-    161112 H01  0.2+  0.3-    161113 H01  0.1-  0.0
161111 G96  0.7+  0.6-    161112 H01  0.1+  0.2-    161113 H01  0.1+  0.1+
161111 695  0.2-  0.2+    161112 H01  0.2+  0.2-

Ephemeris:
2016 VW5                 a,e,i = 2.12, 0.63, 8                   q = 0.7764
Date    TT    R. A. (2000) Decl.     Delta      r     Elong.  Phase     V
2016 10 19    14 28 22.1 -37 17 05   0.1565  0.8637    29.8   145.1    27.4
...
2016 11 03    09 53 19.1 -32 12 05   0.03334 0.9785    65.3   112.9    21.1
...
2016 11 11    05 06 04.1 +20 35 09   0.06730 1.0495   151.3    26.9    19.7
...
2016 11 17    04 20 45.7 +27 19 39   0.1200  1.1053   165.7    12.8    20.6
2016 11 18    04 16 29.6 +27 51 03   0.1292  1.1147   167.0    11.5    20.7
2016 11 19    04 12 44.0 +28 17 31   0.1385  1.1242   168.2    10.4    20.8
...
2016 11 25    03 57 14.4 +29 52 09   0.1965  1.1815   170.8     7.7    21.6
...
2016 12 03    03 47 01.6 +30 36 52   0.2797  1.2588   165.8    11.1    22.6
...
2016 12 18    03 42 56.9 +30 45 08   0.4558  1.4034   152.2    19.1    24.2

A. U. Tomatic                (C) Copyright 2016 MPC           M.P.E.C. 2016-W08




More information about the Iaude mailing list